Other Surface Observations
Issued by NWS

Home | Current Version | Previous Version | Text Only | Print | Product List | Glossary On
Versions: 1 2 3 4 5 6 7 8 9 10 11 12 13 14 15 16 17 18 19 20 21 22 23 24 25 26 27 28 29 30 31 32 33 34 35 36 37 38 39 40 41 42 43 44 45 46 47 48 49 50
251
SXUS52 KTAE 240918
OSOTAE
OSOTAE
North Florida/South Alabama/Southwest Georgia Weather Roundup
National Weather Service Tallahassee Florida
500 AM EDT FRI MAR 24 2017

Note: "fair" indicates few or no clouds below 12,000 feet with no
significant weather and/or obstructions to visibility.

!FLZ017-115-028-034-025-241000
...North Florida...

CITY           SKY/WX    TMP DP  RH WIND       PRES   REMARKS
TALLAHASSEE    CLEAR     57  54  89 E7        30.34S
APALACHICOLA   CLOUDY    64  60  87 E12       30.31S
PERRY          CLOUDY    55  54  94 NE5       30.35S
CROSS CITY     CLEAR     54  52  94 NE5       30.34S
JACKSONVILLE   CLEAR     51  51 100 N3        30.35S
$$

!FLZ112-006-005-002-011-241000
...Florida Panhandle...

CITY           SKY/WX    TMP DP  RH WIND       PRES   REMARKS
MARIANNA       MOCLDY    59  54  83 E7        30.32F
BONIFAY        NOT AVBL
PANAMA CITY NW FAIR      61  54  77 E10       30.29F
TYNDALL AFB    CLEAR     61  56  83 E9        30.30S
TYND DRONE APT FAIR      61  57  87 E9        30.30S
DE FUNIAK SPR  FAIR      60  53  77 E7        30.30S
EGLIN AFB      PTCLDY    65  56  72 E10       30.27F
DESTIN         MOCLDY    68  61  78 SE18G29   30.27F
HURLBURT       NOT AVBL
CRESTVIEW      MOCLDY    61  54  77 E6        30.30S
PENSACOLA      CLOUDY    69  58  67 SE24      30.25F
$$

!ALZ063-066-241000
...South Alabama...

CITY           SKY/WX    TMP DP  RH WIND       PRES   REMARKS
DOTHAN         CLEAR     57  54  89 E10       30.36S
OZARK CAIRNS   CLEAR     58  52  80 E8        30.32S
FT RUCKER HELI CLEAR     59  53  80 E3        30.32S
RUCKER HELI 3  FAIR      58  53  81 SE10      30.31S
RUCKER HELI 2  FAIR      58  53  81 E9        30.32S
FLORALA APT    MOCLDY    60  53  77 SE7       30.31S
ANDALUSIA      PTCLDY    62  53  72 SE8       30.29S
TROY           CLEAR     60  53  77 SE8       30.33S
EUFALA         CLOUDY    60  51  72 E10       30.34F
MOBILE         CLOUDY    68  62  81 SE14      30.23F
$$

!GAZ120>161-241000
...Southwest and South Central Georgia...

CITY           SKY/WX    TMP DP  RH WIND       PRES   REMARKS
THOMASVILLE    CLOUDY    55  55 100 E7        30.37F
BAINBRIDGE     MOCLDY    55  52  88 E8        30.36S
MOODY AFB      CLOUDY    54  52  94 E6        30.37S
VALDOSTA       CLOUDY    54  53  97 E7        30.38R
MOULTRIE       CLEAR     54  52  94 CALM      30.38F
BLAKELY        CLOUDY    61  54  77 E6        30.36F
ALBANY         CLEAR     54  52  93 E5        30.39F
TIFTON         CLOUDY    54  54 100 E6        30.39S
FITZGERALD     CLOUDY    54  52  95 E6        30.43S
CORDELE        CLOUDY    57  52  85 E6        30.41F
AMERICUS       CLOUDY    54  46  76 SE6       30.41S
HOMERVILLE     CLOUDY    54  54 100 NE3       30.39S
$$

!GMZ750-755-770-775-241000
...Coastal and Buoy Obs...

STATION/POSITION TIME  TEMP    WIND        PRES    VSBY  WAVE
                       AIR SEA DIR/SP/G                  HT/PER
                 (UTC) (F)     (DEG/KT/KT) (MB)    (MI)  (FT/S)
KEATON BEACH     0900   56      60/  6/  8 1026.8F
CEDAR KEY        0900   60      60/ 10/ 12 1026.9F
C TOWER          0900   65     100/ 19/ 20 1026.5F
APALACHICOLA BUO 0850   68 68  110/ 19/ 23 1024.6F         6/ 6
PANAMA CITY BUOY 0850   70 71              1023.9F         8/ 7
MOBILE BUOY      0900   72 72  130/ 21/ 25 1022.3
ORANGE BCH AL BU 0850   69 69  130/ 21/ 25 1023.2F         7/ 7
$$




USA.gov is the U.S. government's official web portal to all federal, state and local government web resources and services.